Home   Weather   Bastia   Past weeks
Flag for France

Past Weather in Bastia, Corse, France — Yesterday and Last 2 Weeks

Now
66 °F

Clear.


Feels Like: 66 °F
Forecast: 70 / 55 °F
Wind: 17 mph from Southwest

Location: Bastia Airport

Current Time: Oct 16, 2019 at 2:31:52 am

Latest Report: Oct 16, 2019 at 1:30 am


Visibility: 10 mi

Pressure: 29.92 "Hg

Humidity: 40%

Dew Point: 41 °F

Location of BastiaLocation

Past Weather in Bastia — Graph

°F

Bastia Temperature Yesterday

Maximum temperature yesterday: 75 °F (at 3:30 pm)
Minimum temperature yesterday: 63 °F (at 3:00 am)
Average temperature yesterday: 69 °F

High & Low Weather Summary for the Past Weeks

 TemperatureHumidityPressure
High82 °F (Oct 2, 3:30 pm)100% (Oct 15, 7:00 am)30.21 "Hg (Oct 15, 7:00 am)
Low50 °F (Oct 4, 6:00 am)21% (Oct 3, 12:00 pm)29.56 "Hg (Oct 7, 7:30 am)
Average66 °F73%29.96 "Hg
* Reported Oct 1 1:00 am — Oct 16 1:00 am, Bastia. Weather by CustomWeather, © 2019

Note: Actual official high and low records may vary slightly from our data, if they occured in-between our weather recording intervals... More about our weather records

Advertising

Bastia Weather History for the Previous 24 Hours

Scroll right to see more
 ConditionsComfort  
Time TempWeatherWind HumidityBarometerVisibility
1:00 am
Wed, Oct 16
66 °FClear.17 mph40%29.92 "Hg10 mi
12:30 am66 °FClear.14 mph43%29.92 "Hg10 mi
12:00 am64 °FClear.9 mph43%29.92 "Hg10 mi
11:30 pm
Tue, Oct 15
68 °FPassing clouds.14 mph35%29.92 "HgN/A
11:00 pm66 °FClear.13 mph37%29.92 "Hg10 mi
10:30 pm66 °FPassing clouds.10 mph37%29.92 "HgN/A
10:00 pm66 °FClear.14 mph43%29.92 "Hg10 mi
9:30 pm68 °FPassing clouds.5 mph43%29.89 "HgN/A
9:00 pm68 °FClear.3 mph46%29.89 "Hg10 mi
8:30 pm70 °FPassing clouds.10 mph43%29.89 "HgN/A
8:00 pm68 °FPassing clouds.5 mph60%29.89 "HgN/A
7:30 pm72 °FClear.13 mph50%29.86 "Hg10 mi
7:00 pm68 °FClear.14 mph64%29.86 "Hg10 mi
6:30 pm70 °FSunny.5 mph69%29.83 "Hg10 mi
6:00 pm73 °FPassing clouds.13 mph57%29.83 "HgN/A
5:30 pm73 °FPassing clouds.5 mph74%29.83 "HgN/A
5:00 pm73 °FPassing clouds.6 mph74%29.83 "HgN/A
4:30 pm73 °FLight rain. Broken clouds.8 mph78%29.83 "HgN/A
4:00 pm73 °FLight rain. Broken clouds.2 mph78%29.86 "HgN/A
3:30 pm75 °FMild.8 mph74%29.83 "HgN/A
3:00 pm73 °FBroken clouds.5 mph78%29.83 "HgN/A
2:30 pm73 °FPartly sunny.9 mph78%29.83 "HgN/A
2:00 pm73 °FScattered clouds.13 mph74%29.86 "HgN/A
1:30 pm73 °FBroken clouds.10 mph83%29.86 "HgN/A
1:00 pm72 °FRain. Partly sunny.9 mph83%29.89 "HgN/A
12:30 pm73 °FPartly sunny.20 mph83%29.89 "HgN/A
12:00 pm73 °FPassing clouds.10 mph74%29.89 "HgN/A
11:30 am73 °FPassing clouds.10 mph83%29.89 "HgN/A
11:00 am73 °FPartly sunny.15 mph83%29.89 "HgN/A
10:30 am72 °FPartly sunny.10 mph88%29.92 "HgN/A
10:00 am70 °FPartly sunny.9 mph88%29.92 "HgN/A
9:30 am64 °FPassing clouds.6 mph94%29.92 "HgN/A
9:00 am66 °FPartly sunny.5 mph88%29.95 "HgN/A
8:30 am66 °FPartly sunny.9 mph94%29.92 "HgN/A
8:00 am66 °FPassing clouds.6 mph88%29.92 "HgN/A
7:30 am64 °FPassing clouds.6 mph94%29.92 "HgN/A
7:00 am66 °FPassing clouds.7 mph100%29.92 "HgN/A
6:30 am64 °FPassing clouds.5 mph88%29.95 "HgN/A
6:00 am63 °FPassing clouds.5 mph94%29.95 "HgN/A
5:30 am63 °FMild.7 mph94%29.95 "HgN/A
5:00 am63 °FClear.7 mph94%29.95 "Hg10 mi
4:30 am63 °FPassing clouds.5 mph94%29.95 "HgN/A
4:00 am63 °FPassing clouds.5 mph94%29.98 "HgN/A
3:30 am63 °FPassing clouds.5 mph94%29.98 "HgN/A
3:00 am63 °FClear.5 mph94%29.98 "Hg10 mi
2:30 am64 °FPassing clouds.5 mph94%30.01 "HgN/A
2:00 am64 °FClear.5 mph94%30.01 "Hg10 mi
Weather by CustomWeather, © 2019

See weather overview